Location: Grasslands National Park East Block
(49.0708°N, 106.5295°W)
Time: 16:33:36
(UTC-06:00)

Vanguard 1 - Pass Details

Date: 01 October 2019
Orbit: 653 x 3830 km, 34.3° (Epoch: 14 October)

Event Time Altitude Azimuth Distance (km) Brightness Sun altitude
Rises 04:20:53 0° 267° (W) 7,645 - -26.8°
Reaches altitude 10° 04:26:06 10° 263° (W) 6,807 - -26.1°
Exits shadow 04:36:09 31° 247° (WSW) 5,341 13.1 -24.6°
Maximum altitude 04:47:32 48° 199° (SSW) 4,333 12.9 -22.9°
Drops below altitude 10° 05:04:41 10° 133° (SE) 5,546 14.2 -20.3°
Sets 05:08:26 0° 127° (SE) 6,197 14.6 -19.7°
